Total_Precipitation_Accumulation
0.28 0.35 0.34 0.24 0.17 0.15 0.21 0.26 0.29 0.23 0.19 0.26 0.40 0.46 0.38 0.38 0.41 0.41 0.51 0.50 0.44 0.39 0.33 0.34 0.35 0.37 0.41 0.49 0.55 0.57 0.59 0.64 0.75 0.88 1.04 1.20 1.34 1.43
0.34 0.35 0.37 0.35 0.32 0.24 0.23 0.26 0.30 0.30 0.27 0.25 0.39 0.47 0.50 0.41 0.44 0.48 0.50 0.47 0.41 0.37 0.31 0.28 0.30 0.32 0.33 0.35 0.39 0.46 0.47 0.45 0.48 0.55 0.62 0.70 0.77 0.90
0.57 0.50 0.45 0.44 0.43 0.37 0.34 0.30 0.30 0.33 0.38 0.39 0.48 0.60 0.63 0.55 0.55 0.52 0.49 0.49 0.40 0.37 0.34 0.31 0.29 0.28 0.31 0.31 0.32 0.33 0.37 0.38 0.38 0.38 0.41 0.45 0.47 0.50
0.69 0.72 0.63 0.56 0.51 0.43 0.39 0.37 0.35 0.39 0.44 0.53 0.60 0.67 0.69 0.67 0.63 0.50 0.41 0.39 0.43 0.41 0.36 0.34 0.33 0.31 0.28 0.27 0.27 0.26 0.28 0.30 0.32 0.31 0.31 0.33 0.37 0.40
0.44 0.65 0.74 0.72 0.59 0.52 0.46 0.41 0.40 0.40 0.42 0.47 0.58 0.74 0.85 0.83 0.62 0.40 0.34 0.37 0.38 0.47 0.44 0.35 0.32 0.32 0.29 0.26 0.24 0.22 0.22 0.24 0.26 0.29 0.28 0.27 0.28 0.29
0.21 0.34 0.52 0.69 0.68 0.61 0.52 0.46 0.46 0.47 0.48 0.50 0.58 0.76 0.93 0.98 0.75 0.47 0.37 0.35 0.35 0.33 0.34 0.31 0.30 0.29 0.28 0.25 0.23 0.22 0.21 0.23 0.25 0.25 0.27 0.27 0.25 0.23
0.15 0.17 0.23 0.38 0.53 0.60 0.55 0.51 0.50 0.52 0.53 0.53 0.59 0.76 0.92 1.00 0.77 0.56 0.43 0.39 0.37 0.35 0.29 0.25 0.23 0.21 0.22 0.24 0.24 0.22 0.20 0.21 0.24 0.26 0.27 0.26 0.25 0.23
0.27 0.24 0.20 0.18 0.26 0.38 0.47 0.49 0.49 0.48 0.52 0.54 0.59 0.73 0.86 0.91 0.95 0.79 0.58 0.42 0.34 0.34 0.33 0.31 0.29 0.28 0.23 0.21 0.23 0.24 0.23 0.22 0.21 0.23 0.24 0.27 0.26 0.24
0.39 0.39 0.24 0.14 0.19 0.26 0.34 0.39 0.40 0.38 0.39 0.46 0.54 0.67 0.94 1.11 1.21 0.95 0.75 0.63 0.50 0.43 0.39 0.35 0.36 0.33 0.28 0.26 0.31 0.28 0.26 0.25 0.22 0.20 0.21 0.22 0.25 0.26
0.34 0.42 0.38 0.31 0.30 0.34 0.36 0.35 0.34 0.32 0.29 0.31 0.40 0.58 0.84 1.19 1.37 1.35 1.23 1.02 0.87 0.68 0.51 0.39 0.36 0.32 0.32 0.29 0.33 0.32 0.29 0.28 0.27 0.26 0.22 0.21 0.23 0.25
0.31 0.37 0.42 0.42 0.34 0.28 0.34 0.31 0.29 0.30 0.26 0.26 0.33 0.51 0.69 0.94 1.28 1.44 1.38 1.15 0.94 0.71 0.51 0.39 0.34 0.31 0.28 0.26 0.29 0.33 0.31 0.29 0.29 0.29 0.30 0.27 0.25 0.28
0.39 0.45 0.48 0.45 0.34 0.24 0.31 0.36 0.31 0.27 0.29 0.29 0.31 0.37 0.50 0.67 0.96 1.11 1.07 1.00 0.84 0.66 0.46 0.38 0.32 0.34 0.30 0.25 0.22 0.22 0.24 0.28 0.30 0.30 0.31 0.32 0.31 0.24
0.37 0.40 0.52 0.47 0.36 0.25 0.28 0.34 0.29 0.29 0.37 0.37 0.38 0.42 0.53 0.65 0.77 0.97 1.00 0.88 0.76 0.59 0.43 0.40 0.33 0.32 0.29 0.24 0.22 0.20 0.18 0.19 0.22 0.26 0.31 0.33 0.34 0.30
0.46 0.50 0.58 0.55 0.43 0.34 0.30 0.30 0.24 0.22 0.30 0.36 0.36 0.37 0.43 0.53 0.69 0.88 1.03 0.99 0.85 0.73 0.62 0.54 0.45 0.37 0.29 0.23 0.20 0.19 0.19 0.19 0.19 0.20 0.24 0.32 0.33 0.35
0.54 0.69 0.73 0.69 0.59 0.49 0.42 0.39 0.30 0.26 0.29 0.31 0.32 0.31 0.34 0.46 0.69 0.92 1.10 1.19 1.08 0.92 0.81 0.67 0.56 0.48 0.42 0.27 0.19 0.17 0.18 0.21 0.21 0.20 0.22 0.23 0.25 0.29
0.47 0.66 0.79 0.85 0.81 0.70 0.60 0.55 0.41 0.34 0.34 0.34 0.35 0.39 0.46 0.58 0.73 0.82 0.95 1.07 1.09 0.98 0.84 0.74 0.63 0.57 0.50 0.38 0.24 0.17 0.14 0.16 0.20 0.22 0.24 0.25 0.26 0.28
0.39 0.66 0.87 1.01 1.05 1.03 0.91 0.81 0.69 0.57 0.49 0.48 0.51 0.52 0.55 0.62 0.69 0.81 0.92 0.95 0.91 0.79 0.74 0.74 0.71 0.67 0.61 0.53 0.37 0.22 0.17 0.13 0.13 0.19 0.25 0.26 0.26 0.26
0.37 0.63 0.86 1.03 1.11 1.22 1.23 1.14 0.98 0.82 0.73 0.70 0.66 0.65 0.66 0.65 0.69 0.83 0.96 0.99 0.89 0.76 0.67 0.62 0.68 0.71 0.68 0.59 0.45 0.28 0.19 0.16 0.14 0.16 0.21 0.24 0.24 0.24
0.40 0.57 0.68 0.83 1.00 1.19 1.27 1.26 1.10 0.97 0.98 0.96 0.86 0.80 0.80 0.76 0.74 0.81 0.94 0.99 0.97 0.86 0.77 0.68 0.63 0.60 0.54 0.43 0.34 0.27 0.22 0.18 0.19 0.19 0.20 0.21 0.20 0.20
0.37 0.46 0.52 0.64 0.82 1.07 1.22 1.28 1.21 1.10 1.08 1.09 1.04 0.95 0.91 0.85 0.77 0.74 0.85 0.93 0.96 0.94 0.89 0.79 0.60 0.49 0.41 0.36 0.35 0.31 0.24 0.27 0.26 0.23 0.22 0.23 0.25 0.30
0.38 0.43 0.46 0.57 0.71 0.91 1.11 1.25 1.27 1.20 1.14 1.17 1.15 1.03 0.98 0.92 0.81 0.74 0.79 0.89 0.96 0.96 0.84 0.71 0.58 0.56 0.65 0.67 0.54 0.40 0.33 0.30 0.35 0.34 0.33 0.35 0.33 0.34
0.50 0.51 0.55 0.64 0.77 0.98 1.16 1.26 1.29 1.26 1.20 1.20 1.16 1.08 1.02 0.98 0.87 0.81 0.81 0.84 0.85 0.86 0.84 0.85 0.93 0.90 0.81 0.69 0.51 0.42 0.43 0.42 0.43 0.47 0.44 0.39 0.33 0.29
0.57 0.55 0.56 0.62 0.78 0.97 1.12 1.24 1.28 1.27 1.25 1.20 1.17 1.10 1.05 1.03 0.98 0.93 0.86 0.85 0.88 0.92 1.03 1.06 1.04 0.97 0.82 0.73 0.65 0.57 0.52 0.53 0.55 0.50 0.40 0.36 0.33 0.31